Location: Unspecified
(51.5147°N, 7.4673°E)
Time: 17:37:49
(UTC+01:00)

Vanguard 1 - Pass Details

Date: 20 February 2026
Orbit: 653 x 3818 km, 34.2° (Epoch: 5 March)

Event Time Altitude Azimuth Distance (km) Brightness Sun altitude
Rises 19:16:11 0° 263° (W) 5,665 15.9 -13.4°
Reaches altitude 10° 19:19:43 10° 255° (WSW) 5,042 15.0 -13.9°
Maximum altitude 19:33:38 38° 195° (SSW) 4,324 13.4 -16.1°
Drops below altitude 10° 19:53:03 10° 138° (SE) 6,913 13.9 -19.1°
Enters shadow 19:56:19 - 134° (SE) 7,455 14.1 -19.6°
